Simultaneous Nadir Overpasses (SNOs) Predictions

Prediction of SNOs near equator between AQUA and NPP Satellite Orbit:

Table of predicted SNOs near equator for the next 14.0 days since TLE Epoch: 8/26/2017
Index Date (AQUA) Time (AQUA) AQUA Lat,Lon Date (NPP) Time (NPP) NPP Lat,Lon Distance(km) Time Diff (sec)
1 08/28/2017 07:52:18 5.06, 85.02 08/28/2017 07:42:37 5.03, 84.92 11.58 581
2 08/28/2017 08:40:26 -0.55,-106.36 08/28/2017 08:32:00 -0.45,-106.72 41.41 506
3 08/28/2017 09:28:40 -4.07, 62.24 08/28/2017 09:21:30 -4.20, 61.61 71.09 430
4 08/28/2017 10:16:48 8.58,-129.14 08/28/2017 10:10:53 8.77,-130.02 99.81 355
5 08/31/2017 00:08:21 3.45,-158.76 08/30/2017 23:59:07 3.42,-158.96 21.80 554
6 08/31/2017 00:56:28 1.06, 9.85 08/31/2017 00:48:29 1.15, 9.40 51.56 479
7 08/31/2017 01:44:42 -5.68, 178.46 08/31/2017 01:37:59 -5.80, 177.74 81.11 403
8 09/02/2017 15:37:47 -12.39, 147.57 09/02/2017 15:27:47 -12.40, 147.47 10.19 600
9 09/02/2017 16:24:23 1.85, -42.54 09/02/2017 16:15:35 1.77, -42.82 32.02 528
10 09/02/2017 17:12:30 2.72, 126.08 09/02/2017 17:04:58 2.81, 125.54 61.72 452
11 09/02/2017 18:00:45 -7.28, -65.32 09/02/2017 17:54:28 -7.46, -66.12 90.83 377
12 09/05/2017 07:52:11 -4.82, -94.92 09/05/2017 07:42:35 -4.82, -95.03 12.55 576
13 09/05/2017 08:40:26 0.25, 73.67 09/05/2017 08:32:05 0.17, 73.30 42.18 501
14 09/05/2017 09:28:34 4.25,-117.71 09/05/2017 09:21:28 4.41,-118.34 71.82 426
15 09/08/2017 00:08:14 -3.23, 21.30 09/07/2017 23:59:04 -3.16, 21.10 22.64 550
16 09/08/2017 00:56:28 -1.40,-170.10 09/08/2017 00:48:34 -1.48,-170.56 52.37 474
17 09/08/2017 01:44:36 5.90, -1.48 09/08/2017 01:37:57 6.06, -2.20 81.74 399




NCC Satellite Simultaneous Nadir Overpasses (SNOs) Prediction Service
